{"data":{"norad_id":64519,"intl_designator":"2025-134V","name":"KUIPER-00059","alt_names":[],"object_type":"PAYLOAD","status":"ACTIVE","operator":null,"country":"US","launch_date":"2025-06-23","launch_site_code":"AFETR","launch_vehicle":null,"mission":null,"orbit_class":"UNKNOWN","rcs_meters":null,"size_class":null,"mass_kg":null,"dimensions":null,"purposes":[],"wikipedia_slug":null,"has_3d_model":false,"image_url":null,"decayed_at":null,"tle_current":{"epoch":"2026-09-21T21:15:04.525920Z","epoch_age_seconds":61867,"freshness":"FRESH","line1":"1 64519U 25134V   26264.88546905  .00001658  00000+0  24650-3 0  9994","line2":"2 64519  51.9012  73.0053 0000495 117.6053 242.4960 14.79927867 69309","mean_motion":14.79927867,"eccentricity":4.95e-5,"inclination_deg":51.9012,"raan_deg":73.0053,"arg_perigee_deg":117.6053,"mean_anomaly_deg":242.496,"bstar":0.0002465,"rev_number":6930,"period_min":97.302039654072,"perigee_km":629.20495223364,"apogee_km":629.89871342809,"semimajor_km":7007.6888328309,"source":"CELESTRAK","updated_at":"2026-09-22T09:00:29.811776Z"}}}